Jacksonville, IL

11:53 PM CST on January 20, 2017 (GMT -0600)
Jacksonville

Weather History for KIJX - September, 2013

Change the Weather History Date:

Sunday, September 22, 2013

  Actual Average (KSPI) Record (KSPI)
Temperature  
Mean Temperature 58 °F -  
Max Temperature 72 °F 73 °F 95 °F (2005)
Min Temperature 43 °F 50 °F 33 °F (1983)
Degree Days  
Heating Degree Days 8    
Growing Degree Days 8 (Base 50)    
Moisture  
Dew Point 48 °F    
Average Humidity 75    
Maximum Humidity 98    
Minimum Humidity 42    
Precipitation  
Precipitation 0.00 in - - ()
Sea Level Pressure  
Sea Level Pressure 29.99 in    
Wind  
Wind Speed 1 mph (East)    
Max Wind Speed 8 mph    
Max Gust Speed -    
Visibility 10 miles    
Events      
Averages and records for this station are not official NWS values.
T = Trace of Precipitation, MM = Missing Value Source: NWS Daily Summary

Daily Weather History Graph

Daily Weather History Graph

Search for Another Location

Airport or City:

Trip Planner

Search our weather history database for the weather conditions in past years. The results will help you decide how hot, cold, wet, or windy it might be!

Date:

Astronomy

Sep. 22, 2013 Rise Set
Actual Time 6:48 AM CDT 6:57 PM CDT
Civil Twilight 6:21 AM CDT 7:24 PM CDT
Nautical Twilight 5:50 AM CDT 7:55 PM CDT
Astronomical Twilight 5:18 AM CDT 8:27 PM CDT
Moon 8:48 PM CDT (9/22) 10:08 AM CDT (9/22)
Length of Visible Light 13h 02m
Length of Day
12h 08m
Waning Gibbous, 88% of the Moon is Illuminated
Sep 22
Waning Gibbous
Sep 26
Last Quarter
Oct 4
New
Oct 11
First Quarter
Oct 18
Full

Hourly Weather History & Observations

Time (CDT) Temp. Dew Point Humidity Pressure Visibility Wind Dir Wind Speed Gust Speed Precip Events Conditions
12:15 AM 50.7 °F 49.3 °F 95% 29.96 in 10.0 mi Calm Calm - N/A   Clear
12:35 AM 49.1 °F 48.0 °F 96% 29.96 in 10.0 mi Calm Calm - N/A   Clear
12:55 AM 49.3 °F 48.0 °F 95% 29.96 in 10.0 mi Calm Calm - N/A   Clear
1:15 AM 48.2 °F 47.1 °F 96% 29.97 in 10.0 mi Calm Calm - N/A   Clear
1:35 AM 47.7 °F 46.6 °F 96% 29.97 in 10.0 mi Calm Calm - N/A   Clear
1:55 AM 47.5 °F 46.4 °F 96% 29.97 in 10.0 mi Calm Calm - N/A   Clear
2:15 AM 47.7 °F 46.6 °F 96% 29.97 in 10.0 mi Calm Calm - N/A   Clear
2:35 AM 45.5 °F 44.6 °F 97% 29.97 in 10.0 mi Calm Calm - N/A   Clear
2:55 AM 46.4 °F 45.7 °F 97% 29.97 in 10.0 mi Calm Calm - N/A   Clear
3:15 AM 46.8 °F 46.0 °F 97% 29.97 in 10.0 mi Calm Calm - N/A   Clear
3:35 AM 46.0 °F 45.3 °F 97% 29.97 in 5.0 mi Calm Calm - N/A   Clear
3:55 AM 45.7 °F 45.0 °F 97% 29.97 in 1.8 mi Calm Calm - N/A   Mist
4:15 AM 45.3 °F 44.6 °F 97% 29.98 in 1.5 mi Calm Calm - N/A   Mist
4:35 AM 45.3 °F 44.4 °F 97% 29.98 in 10.0 mi Calm Calm - N/A   Clear
4:55 AM 44.8 °F 44.2 °F 98% 29.98 in 5.0 mi Calm Calm - N/A   Clear
5:15 AM 44.1 °F 43.5 °F 98% 29.99 in 10.0 mi Calm Calm - N/A   Clear
5:35 AM 43.9 °F 43.0 °F 97% 29.99 in 10.0 mi Calm Calm - N/A   Clear
5:55 AM 43.9 °F 43.0 °F 97% 29.99 in 10.0 mi Calm Calm - N/A   Clear
6:15 AM 44.6 °F 43.7 °F 97% 30.00 in 10.0 mi Calm Calm - N/A   Clear
6:35 AM 45.7 °F 45.0 °F 97% 30.00 in 10.0 mi Calm Calm - N/A   Clear
6:55 AM 43.2 °F 42.1 °F 96% 30.01 in 10.0 mi Calm Calm - N/A   Clear
7:15 AM 45.0 °F 44.2 °F 97% 30.01 in 10.0 mi Calm Calm - N/A   Clear
7:35 AM 46.2 °F 45.5 °F 97% 30.02 in 10.0 mi Calm Calm - N/A   Clear
7:55 AM 48.4 °F 47.7 °F 97% 30.03 in 10.0 mi Calm Calm - N/A   Clear
8:15 AM 50.0 °F 48.9 °F 96% 30.03 in 10.0 mi East 3.5 mph - N/A   Clear
8:35 AM 52.5 °F 50.0 °F 91% 30.03 in 10.0 mi East 5.8 mph - N/A   Clear
8:55 AM 55.2 °F 51.3 °F 87% 30.04 in 10.0 mi East 6.9 mph - N/A   Clear
9:15 AM 57.0 °F 51.6 °F 82% 30.05 in 10.0 mi ESE 4.6 mph - N/A   Clear
9:35 AM 59.0 °F 51.3 °F 75% 30.05 in 10.0 mi ESE 8.1 mph - N/A   Clear
9:55 AM 60.6 °F 51.8 °F 73% 30.05 in 10.0 mi ESE 3.5 mph - N/A   Clear
10:15 AM 62.2 °F 52.3 °F 70% 30.05 in 10.0 mi East 3.5 mph - N/A   Clear
10:35 AM 62.8 °F 51.8 °F 67% 30.06 in 10.0 mi Calm Calm - N/A   Clear
10:55 AM 64.4 °F 50.5 °F 61% 30.05 in 10.0 mi East 3.5 mph - N/A   Clear
11:15 AM 65.3 °F 50.5 °F 59% 30.05 in 10.0 mi Calm Calm - N/A   Clear
11:35 AM 67.1 °F 51.3 °F 57% 30.05 in 10.0 mi East 3.5 mph - N/A   Clear
11:55 AM 67.5 °F 50.5 °F 55% 30.04 in 10.0 mi ESE 3.5 mph - N/A   Clear
12:15 PM 67.6 °F 49.6 °F 52% 30.03 in 10.0 mi Calm Calm - N/A   Scattered Clouds
12:35 PM 68.5 °F 50.2 °F 52% 30.03 in 10.0 mi ENE 5.8 mph - N/A   Clear
12:55 PM 68.9 °F 49.8 °F 51% 30.02 in 10.0 mi ENE 4.6 mph - N/A   Clear
1:15 PM 69.4 °F 50.4 °F 51% 30.01 in 10.0 mi NE 5.8 mph - N/A   Clear
1:35 PM 70.3 °F 50.4 °F 49% 30.01 in 10.0 mi ESE 4.6 mph - N/A   Clear
1:55 PM 70.7 °F 50.5 °F 49% 30.00 in 10.0 mi Calm Calm - N/A   Clear
2:15 PM 71.1 °F 49.6 °F 47% 30.00 in 10.0 mi ESE 4.6 mph - N/A   Clear
2:35 PM 71.2 °F 49.5 °F 46% 29.99 in 10.0 mi Calm Calm - N/A   Clear
2:55 PM 71.8 °F 50.0 °F 46% 29.98 in 10.0 mi Calm Calm - N/A   Clear
3:15 PM 71.6 °F 49.3 °F 45% 29.98 in 10.0 mi Calm Calm - N/A   Clear
3:35 PM 72.0 °F 48.4 °F 43% 29.98 in 10.0 mi Calm Calm - N/A   Clear
3:55 PM 72.5 °F 48.7 °F 43% 29.97 in 10.0 mi Calm Calm - N/A   Clear
4:15 PM 72.5 °F 48.4 °F 42% 29.97 in 10.0 mi Calm Calm - N/A   Clear
4:35 PM 72.5 °F 48.4 °F 42% 29.97 in 10.0 mi ESE 4.6 mph - N/A   Clear
4:55 PM 72.5 °F 49.8 °F 45% 29.96 in 10.0 mi SE 5.8 mph - N/A   Clear
5:15 PM 71.8 °F 48.7 °F 44% 29.96 in 10.0 mi Calm Calm - N/A   Clear
5:35 PM 71.6 °F 49.6 °F 46% 29.97 in 10.0 mi Calm Calm - N/A   Clear
5:55 PM 70.3 °F 50.2 °F 49% 29.97 in 10.0 mi East 5.8 mph - N/A   Clear
6:15 PM 68.4 °F 51.1 °F 54% 29.97 in 10.0 mi ESE 4.6 mph - N/A   Clear
6:35 PM 66.6 °F 51.1 °F 57% 29.97 in 10.0 mi ESE 3.5 mph - N/A   Clear
6:55 PM 64.8 °F 50.4 °F 60% 29.96 in 10.0 mi ESE 3.5 mph - N/A   Clear
7:15 PM 64.0 °F 50.0 °F 60% 29.96 in 10.0 mi SE 3.5 mph - N/A   Clear
7:35 PM 61.9 °F 50.4 °F 66% 29.97 in 5.0 mi SE 3.5 mph - N/A   Haze
7:55 PM 60.8 °F 50.2 °F 68% 29.97 in 10.0 mi SE 3.5 mph - N/A   Clear
8:15 PM 59.2 °F 50.2 °F 72% 29.98 in 10.0 mi SSE 3.5 mph - N/A   Clear
8:35 PM 56.7 °F 49.8 °F 78% 29.98 in 10.0 mi SE 3.5 mph - N/A   Clear
8:55 PM 56.1 °F 50.0 °F 80% 29.98 in 10.0 mi Calm Calm - N/A   Clear
9:15 PM 54.0 °F 49.3 °F 84% 29.99 in 10.0 mi Calm Calm - N/A   Clear
9:35 PM 52.2 °F 48.9 °F 89% 29.99 in 10.0 mi Calm Calm - N/A   Clear
9:55 PM 52.7 °F 49.6 °F 89% 29.99 in 10.0 mi Calm Calm - N/A   Clear
10:15 PM 51.4 °F 48.7 °F 90% 29.99 in 10.0 mi ENE 4.6 mph - N/A   Clear
10:35 PM 51.8 °F 48.2 °F 88% 29.99 in 10.0 mi ENE 4.6 mph - N/A   Clear
10:55 PM 51.8 °F 48.0 °F 87% 30.00 in 10.0 mi ENE 3.5 mph - N/A   Clear
11:15 PM 52.0 °F 48.2 °F 87% 30.00 in 10.0 mi ENE 3.5 mph - N/A   Clear
11:35 PM 51.3 °F 46.9 °F 85% 30.00 in 10.0 mi East 4.6 mph - N/A   Clear
11:55 PM 50.2 °F 46.4 °F 87% 30.00 in 5.0 mi East 5.8 mph - N/A   Clear